Time,TemperatureF,DewpointF,PressureIn,WindDirection,WindDirectionDegrees,WindSpeedMPH,WindSpeedGustMPH,Humidity,HourlyPrecipIn,Conditions,Clouds,dailyrainin,SoftwareType,DateUTC
2013-01-27 00:07:00,61.4,59.0,30.20,NNW,331,0.0,-999.0,93,-99.99,,,0.00,weatherlink.com 1.10,2013-01-27 05:07:00,
2013-01-27 00:22:00,61.4,59.0,30.20,NNW,331,0.0,-999.0,93,-99.99,,,0.00,weatherlink.com 1.10,2013-01-27 05:22:00,
2013-01-27 00:37:00,61.4,59.0,30.20,NNW,331,0.0,-999.0,92,-99.99,,,0.00,weatherlink.com 1.10,2013-01-27 05:37:00,
2013-01-27 00:52:00,61.3,59.0,30.20,NNW,331,0.0,-999.0,93,-99.99,,,0.00,weatherlink.com 1.10,2013-01-27 05:52:00,
2013-01-27 01:07:00,61.4,59.0,30.20,NNW,331,0.0,-999.0,93,-99.99,,,0.00,weatherlink.com 1.10,2013-01-27 06:07:00,
2013-01-27 01:22:00,61.5,60.0,30.20,NNW,331,0.0,-999.0,93,-99.99,,,0.00,weatherlink.com 1.10,2013-01-27 06:22:00,
2013-01-27 01:37:00,61.5,59.0,30.20,NNW,331,0.0,-999.0,92,-99.99,,,0.00,weatherlink.com 1.10,2013-01-27 06:37:00,
2013-01-27 01:52:00,61.4,59.0,30.20,NNW,331,0.0,-999.0,93,-99.99,,,0.00,weatherlink.com 1.10,2013-01-27 06:52:00,
2013-01-27 02:07:00,61.3,59.0,30.20,NNW,331,0.0,-999.0,92,-99.99,,,0.00,weatherlink.com 1.10,2013-01-27 07:07:00,
2013-01-27 02:22:00,61.3,59.0,30.20,NNW,331,0.0,-999.0,92,-99.99,,,0.00,weatherlink.com 1.10,2013-01-27 07:22:00,
2013-01-27 02:37:00,61.2,59.0,30.19,NNW,331,0.0,-999.0,92,-99.99,,,0.00,weatherlink.com 1.10,2013-01-27 07:37:00,
2013-01-27 02:52:00,61.1,59.0,30.19,NNW,331,0.0,-999.0,92,-99.99,,,0.00,weatherlink.com 1.10,2013-01-27 07:52:00,
2013-01-27 03:07:00,61.1,59.0,30.19,NNW,331,0.0,-999.0,92,-99.99,,,0.00,weatherlink.com 1.10,2013-01-27 08:07:00,
2013-01-27 03:22:00,61.1,59.0,30.19,NNW,331,0.0,-999.0,92,-99.99,,,0.00,weatherlink.com 1.10,2013-01-27 08:22:00,
2013-01-27 03:37:00,60.9,59.0,30.19,NNW,331,0.0,-999.0,92,-99.99,,,0.00,weatherlink.com 1.10,2013-01-27 08:37:00,
2013-01-27 03:52:00,60.9,59.0,30.19,NNW,331,0.0,-999.0,93,-99.99,,,0.00,weatherlink.com 1.10,2013-01-27 08:52:00,
2013-01-27 04:07:00,60.9,59.0,30.19,NNW,331,0.0,-999.0,93,-99.99,,,0.00,weatherlink.com 1.10,2013-01-27 09:07:00,
2013-01-27 04:22:00,60.9,59.0,30.19,NNW,331,0.0,-999.0,93,-99.99,,,0.00,weatherlink.com 1.10,2013-01-27 09:22:00,
2013-01-27 04:37:00,60.7,59.0,30.19,NNW,331,0.0,-999.0,93,-99.99,,,0.00,weatherlink.com 1.10,2013-01-27 09:37:00,
2013-01-27 04:52:00,60.6,59.0,30.19,NNW,331,0.0,-999.0,93,-99.99,,,0.00,weatherlink.com 1.10,2013-01-27 09:52:00,
2013-01-27 05:07:00,60.5,59.0,30.19,NNW,331,0.0,-999.0,93,-99.99,,,0.00,weatherlink.com 1.10,2013-01-27 10:07:00,
2013-01-27 05:22:00,60.5,59.0,30.19,NNW,329,0.0,-999.0,93,-99.99,,,0.00,weatherlink.com 1.10,2013-01-27 10:22:00,
2013-01-27 05:37:00,60.7,58.0,30.19,NNW,329,0.0,-999.0,91,-99.99,,,0.00,weatherlink.com 1.10,2013-01-27 10:37:00,
2013-01-27 05:52:00,61.0,58.0,30.20,NNE,22,0.0,-999.0,90,-99.99,,,0.00,weatherlink.com 1.10,2013-01-27 10:52:00,
2013-01-27 06:07:00,61.3,58.0,30.20,NNE,29,0.0,-999.0,89,-99.99,,,0.00,weatherlink.com 1.10,2013-01-27 11:07:00,
2013-01-27 06:22:00,61.6,58.0,30.21,NNE,29,0.0,-999.0,89,-99.99,,,0.00,weatherlink.com 1.10,2013-01-27 11:22:00,
2013-01-27 06:38:00,61.9,58.0,30.21,NNE,28,0.0,-999.0,88,-99.99,,,0.00,weatherlink.com 1.10,2013-01-27 11:38:00,
2013-01-27 06:53:00,62.0,59.0,30.22,NNE,24,0.0,-999.0,88,-99.99,,,0.00,weatherlink.com 1.10,2013-01-27 11:53:00,
2013-01-27 07:08:00,61.8,58.0,30.22,NNE,25,0.0,-999.0,88,-99.99,,,0.00,weatherlink.com 1.10,2013-01-27 12:08:00,
2013-01-27 07:23:00,62.4,59.0,30.23,NNE,25,0.0,-999.0,87,-99.99,,,0.00,weatherlink.com 1.10,2013-01-27 12:23:00,
2013-01-27 07:38:00,63.0,59.0,30.23,NNE,28,1.0,-999.0,86,-99.99,,,0.00,weatherlink.com 1.10,2013-01-27 12:38:00,
2013-01-27 07:53:00,64.1,59.0,30.23,NE,39,0.0,-999.0,84,-99.99,,,0.00,weatherlink.com 1.10,2013-01-27 12:53:00,
2013-01-27 08:08:00,64.9,60.0,30.23,NE,35,0.0,-999.0,83,-99.99,,,0.00,weatherlink.com 1.10,2013-01-27 13:08:00,
2013-01-27 08:23:00,66.0,60.0,30.24,NNE,22,1.0,-999.0,81,-99.99,,,0.00,weatherlink.com 1.10,2013-01-27 13:23:00,
2013-01-27 08:38:00,67.6,61.0,30.25,NW,305,0.0,-999.0,80,-99.99,,,0.00,weatherlink.com 1.10,2013-01-27 13:38:00,
2013-01-27 08:53:00,69.2,62.0,30.25,NE,44,1.0,-999.0,78,-99.99,,,0.00,weatherlink.com 1.10,2013-01-27 13:53:00,
2013-01-27 09:08:00,70.5,62.0,30.25,NE,43,1.0,-999.0,75,-99.99,,,0.00,weatherlink.com 1.10,2013-01-27 14:08:00,
2013-01-27 09:23:00,71.8,63.0,30.26,ENE,63,2.0,-999.0,73,-99.99,,,0.00,weatherlink.com 1.10,2013-01-27 14:23:00,
2013-01-27 09:38:00,73.4,64.0,30.26,ENE,71,1.0,-999.0,72,-99.99,,,0.00,weatherlink.com 1.10,2013-01-27 14:38:00,
2013-01-27 09:53:00,74.5,63.0,30.26,NE,51,4.0,-999.0,68,-99.99,,,0.00,weatherlink.com 1.10,2013-01-27 14:53:00,
2013-01-27 10:08:00,75.1,62.0,30.26,SE,141,1.0,-999.0,64,-99.99,,,0.00,weatherlink.com 1.10,2013-01-27 15:08:00,
2013-01-27 10:23:00,75.3,62.0,30.27,ESE,122,1.0,-999.0,64,-99.99,,,0.00,weatherlink.com 1.10,2013-01-27 15:23:00,
2013-01-27 10:38:00,75.6,61.0,30.27,ENE,69,4.0,-999.0,61,-99.99,,,0.00,weatherlink.com 1.10,2013-01-27 15:38:00,
2013-01-27 10:53:00,76.3,62.0,30.27,East,94,2.0,-999.0,62,-99.99,,,0.00,weatherlink.com 1.10,2013-01-27 15:53:00,
2013-01-27 11:08:00,76.2,63.0,30.26,East,86,2.0,-999.0,63,-99.99,,,0.00,weatherlink.com 1.10,2013-01-27 16:08:00,
2013-01-27 11:23:00,76.9,62.0,30.26,ENE,58,0.0,-999.0,61,-99.99,,,0.00,weatherlink.com 1.10,2013-01-27 16:23:00,
2013-01-27 11:38:00,77.1,62.0,30.26,NE,47,7.0,-999.0,60,-99.99,,,0.00,weatherlink.com 1.10,2013-01-27 16:38:00,
2013-01-27 11:53:00,77.2,62.0,30.25,East,86,2.0,-999.0,59,-99.99,,,0.00,weatherlink.com 1.10,2013-01-27 16:53:00,
2013-01-27 12:08:00,77.8,62.0,30.25,East,80,2.0,-999.0,58,-99.99,,,0.00,weatherlink.com 1.10,2013-01-27 17:08:00,
2013-01-27 12:24:00,78.1,62.0,30.25,East,86,2.0,-999.0,58,-99.99,,,0.00,weatherlink.com 1.10,2013-01-27 17:24:00,
2013-01-27 12:39:00,77.8,62.0,30.24,SE,130,4.0,-999.0,58,-99.99,,,0.00,weatherlink.com 1.10,2013-01-27 17:39:00,
2013-01-27 12:54:00,77.2,61.0,30.23,ENE,74,2.0,-999.0,58,-99.99,,,0.00,weatherlink.com 1.10,2013-01-27 17:54:00,
2013-01-27 13:09:00,77.3,60.0,30.23,ESE,115,11.0,-999.0,56,-99.99,,,0.00,weatherlink.com 1.10,2013-01-27 18:09:00,
2013-01-27 13:24:00,76.8,59.0,30.22,NE,53,12.0,-999.0,55,-99.99,,,0.00,weatherlink.com 1.10,2013-01-27 18:24:00,
2013-01-27 13:39:00,76.9,60.0,30.22,ENE,64,4.0,-999.0,57,-99.99,,,0.00,weatherlink.com 1.10,2013-01-27 18:39:00,
2013-01-27 13:54:00,77.0,60.0,30.22,East,84,5.0,-999.0,56,-99.99,,,0.00,weatherlink.com 1.10,2013-01-27 18:54:00,
2013-01-27 14:09:00,77.3,60.0,30.22,ENE,63,2.0,-999.0,55,-99.99,,,0.00,weatherlink.com 1.10,2013-01-27 19:09:00,
2013-01-27 14:24:00,76.8,60.0,30.21,ESE,104,0.0,-999.0,56,-99.99,,,0.00,weatherlink.com 1.10,2013-01-27 19:24:00,
2013-01-27 14:39:00,77.5,60.0,30.21,East,95,6.0,-999.0,56,-99.99,,,0.00,weatherlink.com 1.10,2013-01-27 19:39:00,
2013-01-27 14:54:00,77.2,60.0,30.21,SE,130,1.0,-999.0,55,-99.99,,,0.00,weatherlink.com 1.10,2013-01-27 19:54:00,
2013-01-27 15:09:00,77.4,60.0,30.21,East,91,7.0,-999.0,55,-99.99,,,0.00,weatherlink.com 1.10,2013-01-27 20:09:00,
2013-01-27 15:24:00,76.8,58.0,30.21,East,96,2.0,-999.0,52,-99.99,,,0.00,weatherlink.com 1.10,2013-01-27 20:24:00,
2013-01-27 15:39:00,77.1,60.0,30.20,East,84,1.0,-999.0,56,-99.99,,,0.00,weatherlink.com 1.10,2013-01-27 20:39:00,
2013-01-27 15:54:00,76.9,59.0,30.21,NE,55,2.0,-999.0,55,-99.99,,,0.00,weatherlink.com 1.10,2013-01-27 20:54:00,
2013-01-27 16:09:00,76.2,59.0,30.21,ENE,69,2.0,-999.0,56,-99.99,,,0.00,weatherlink.com 1.10,2013-01-27 21:09:00,
2013-01-27 16:24:00,76.0,59.0,30.21,ENE,64,5.0,-999.0,56,-99.99,,,0.00,weatherlink.com 1.10,2013-01-27 21:24:00,
2013-01-27 16:39:00,75.4,59.0,30.21,ENE,64,4.0,-999.0,58,-99.99,,,0.00,weatherlink.com 1.10,2013-01-27 21:39:00,
2013-01-27 16:54:00,74.9,60.0,30.22,South,176,4.0,-999.0,60,-99.99,,,0.00,weatherlink.com 1.10,2013-01-27 21:54:00,
2013-01-27 17:09:00,74.6,60.0,30.23,ENE,74,2.0,-999.0,61,-99.99,,,0.00,weatherlink.com 1.10,2013-01-27 22:09:00,
2013-01-27 17:24:00,74.2,60.0,30.23,East,80,4.0,-999.0,62,-99.99,,,0.00,weatherlink.com 1.10,2013-01-27 22:24:00,
2013-01-27 17:39:00,73.6,60.0,30.23,ENE,71,1.0,-999.0,62,-99.99,,,0.00,weatherlink.com 1.10,2013-01-27 22:39:00,
2013-01-27 17:54:00,73.2,60.0,30.24,ENE,64,3.0,-999.0,63,-99.99,,,0.00,weatherlink.com 1.10,2013-01-27 22:54:00,
2013-01-27 18:09:00,72.6,60.0,30.24,ENE,69,2.0,-999.0,65,-99.99,,,0.00,weatherlink.com 1.10,2013-01-27 23:09:00,
2013-01-27 18:24:00,72.3,60.0,30.24,ENE,62,2.0,-999.0,66,-99.99,,,0.00,weatherlink.com 1.10,2013-01-27 23:24:00,
2013-01-27 18:39:00,71.8,60.0,30.24,East,89,1.0,-999.0,67,-99.99,,,0.00,weatherlink.com 1.10,2013-01-27 23:39:00,
2013-01-27 18:54:00,71.4,61.0,30.24,East,84,0.0,-999.0,69,-99.99,,,0.00,weatherlink.com 1.10,2013-01-27 23:54:00,
2013-01-27 19:09:00,71.3,61.0,30.25,East,90,1.0,-999.0,70,-99.99,,,0.00,weatherlink.com 1.10,2013-01-28 00:09:00,
2013-01-27 19:24:00,71.2,61.0,30.25,East,91,0.0,-999.0,71,-99.99,,,0.00,weatherlink.com 1.10,2013-01-28 00:24:00,
2013-01-27 19:39:00,71.2,62.0,30.25,ENE,74,0.0,-999.0,72,-99.99,,,0.00,weatherlink.com 1.10,2013-01-28 00:39:00,
2013-01-27 19:54:00,71.0,62.0,30.25,ESE,109,0.0,-999.0,73,-99.99,,,0.00,weatherlink.com 1.10,2013-01-28 00:54:00,
2013-01-27 20:09:00,70.9,62.0,30.26,ESE,104,0.0,-999.0,74,-99.99,,,0.00,weatherlink.com 1.10,2013-01-28 01:09:00,
2013-01-27 20:24:00,71.0,63.0,30.26,SE,130,0.0,-999.0,75,-99.99,,,0.00,weatherlink.com 1.10,2013-01-28 01:24:00,
2013-01-27 20:39:00,71.3,63.0,30.26,East,95,2.0,-999.0,75,-99.99,,,0.00,weatherlink.com 1.10,2013-01-28 01:39:00,
2013-01-27 20:54:00,71.8,63.0,30.27,East,92,1.0,-999.0,74,-99.99,,,0.00,weatherlink.com 1.10,2013-01-28 01:54:00,
2013-01-27 21:09:00,71.8,63.0,30.27,SE,128,1.0,-999.0,74,-99.99,,,0.00,weatherlink.com 1.10,2013-01-28 02:09:00,
2013-01-27 21:24:00,71.6,63.0,30.27,ESE,108,1.0,-999.0,75,-99.99,,,0.00,weatherlink.com 1.10,2013-01-28 02:24:00,
2013-01-27 21:39:00,71.5,63.0,30.27,ENE,78,2.0,-999.0,75,-99.99,,,0.00,weatherlink.com 1.10,2013-01-28 02:39:00,
2013-01-27 21:54:00,71.3,63.0,30.27,ENE,75,0.0,-999.0,76,-99.99,,,0.00,weatherlink.com 1.10,2013-01-28 02:54:00,
2013-01-27 22:09:00,71.2,63.0,30.27,ESE,103,1.0,-999.0,76,-99.99,,,0.00,weatherlink.com 1.10,2013-01-28 03:09:00,
2013-01-27 22:24:00,71.5,64.0,30.27,East,101,1.0,-999.0,76,-99.99,,,0.00,weatherlink.com 1.10,2013-01-28 03:24:00,
2013-01-27 22:39:00,71.3,64.0,30.27,East,98,0.0,-999.0,77,-99.99,,,0.00,weatherlink.com 1.10,2013-01-28 03:39:00,
2013-01-27 22:54:00,71.2,64.0,30.27,NE,47,2.0,-999.0,77,-99.99,,,0.00,weatherlink.com 1.10,2013-01-28 03:54:00,
2013-01-27 23:09:00,71.4,64.0,30.27,SE,126,2.0,-999.0,77,-99.99,,,0.00,weatherlink.com 1.10,2013-01-28 04:09:00,
2013-01-27 23:24:00,71.2,64.0,30.26,SSE,150,2.0,-999.0,77,-99.99,,,0.00,weatherlink.com 1.10,2013-01-28 04:24:00,
2013-01-27 23:39:00,71.1,64.0,30.26,East,92,0.0,-999.0,77,-99.99,,,0.00,weatherlink.com 1.10,2013-01-28 04:39:00,
2013-01-27 23:54:00,71.2,64.0,30.25,South,172,4.0,-999.0,77,-99.99,,,0.00,weatherlink.com 1.10,2013-01-28 04:54:00,